Regional Weather Roundup
Issued by NWS

Home | Current Version | Previous Version | Text Only | Print | Product List | Glossary Off
Versions: 1 2 3 4 5 6 7 8 9 10 11 12 13 14 15 16 17 18 19 20 21 22 23 24 25 26 27 28 29 30 31 32 33 34 35 36 37 38 39 40 41 42 43 44 45 46 47 48 49 50

000
ASUS43 KMKX 252014
RWRWI

WISCONSIN REGIONAL WEATHER ROUNDUP
NATIONAL WEATHER SERVICE MILWAUKEE/SULLIVAN WI
300 PM CDT MON MAY 25 2015

NOTE: "FAIR" INDICATES FEW OR NO CLOUDS BELOW 12,000 FEET WITH NO
SIGNIFICANT WEATHER AND/OR OBSTRUCTIONS TO VISIBILITY.

WIZ001-002-006>008-014>016-023>028-252100-
NORTHWEST WISCONSIN

CITY           SKY/WX    TMP DP  RH WIND       PRES   REMARKS
SUPERIOR ARPT  DRIZZLE   47  46  99 NE8       29.71S
ASHLAND        CLOUDY    54  53  97 CALM      29.70R FOG
HAYWARD        CLOUDY    64  60  87 VRB6      29.69S
SIREN          CLOUDY    65  58  79 SW10G20   29.70R
CUMBERLAND     CLOUDY    64  55  72 SW14G24   29.72R
RICE LAKE      CLOUDY    66  57  71 SW15      29.74R
CHETEK         CLOUDY    67  59  76 SW8       29.72R
LADYSMITH      CLOUDY    68  62  80 SW10G16   29.73R
EAU CLAIRE     CLOUDY    70  59  68 SW15      29.73R
MENOMONIE      CLOUDY    71  59  67 SW15      29.73R
NEW RICHMOND   CLOUDY    65  59  81 SW9G16    29.73R
OSCEOLA        CLOUDY    65  61  86 SW14      29.75R
$$

WIZ003>005-009-010-017-018-252100-
NORTH CENTRAL WISCONSIN

CITY           SKY/WX    TMP DP  RH WIND       PRES   REMARKS
MANITOWISH WTR CLOUDY    62  62  99 SW9       29.70R
ARBOR VITAE    CLOUDY    63  60  90 W7        29.71R
WOODRUFF       CLOUDY    63  60  90 W7        29.71R
RHINELANDER    CLOUDY    65  59  81 SW15G23   29.73R
EAGLE RIVER    CLOUDY    65  61  89 SW14G20   29.70R
LAND O LAKES   CLOUDY    64  61  89 SW9       29.71R
PHILLIPS       CLOUDY    65  61  87 SW8G17    29.70S
TOMAHAWK       CLOUDY    65  60  82 SW9G16    29.73R
MEDFORD        CLOUDY    65  60  85 SW10G17   29.75R
MERRILL        CLOUDY    68  62  80 SW14G23   29.74S
$$

WIZ029-030-035-036-043>047-252100-
CENTRAL WISCONSIN

CITY           SKY/WX    TMP DP  RH WIND       PRES   REMARKS
WAUSAU         CLOUDY    70  60  70 SW20G25   29.73R
MOSINEE        PTSUNNY   70  63  78 SW16G24   29.76R
MARSHFIELD     PTSUNNY   72  59  63 SW18G24   29.75S
STEVENS POINT  PTSUNNY   72  59  62 W15G24    29.76R
WAUPACA        PTSUNNY   77  61  58 SW15G30   29.76R
WAUTOMA        PTSUNNY   77  63  61 SW18      29.77S
WISC RAPIDS    CLOUDY    74  59  59 W13G23    29.77R
CAMP DOUGLAS   MOSUNNY   77  67  72 SW16G22   29.76S
$$

WIZ011>013-019>022-031-037>040-048>050-252100-
NORTHEAST WISCONSIN

CITY           SKY/WX    TMP DP  RH WIND       PRES   REMARKS
ANTIGO         CLOUDY    66  62  87 W13G22    29.75R
SHAWANO        PTSUNNY   75  63  66 W15G21    29.74R
OCONTO         CLOUDY    73  64  73 SW16G22   29.72R
STURGEON BAY   PTSUNNY   73  63  68 SW14      29.75R
GREEN BAY      CLOUDY    74  64  71 SW13      29.75R
MANITOWOC      CLOUDY    76  63  64 W16G29    29.78R
APPLETON       PTSUNNY   73  61  64 SW20G26   29.77
CLINTONVILLE   CLOUDY    73  61  64 SW16G25   29.74S
OSHKOSH        PTSUNNY   74  62  66 SW14G26   29.77S
$$

WIZ032>034-041-042-053>061-252100-
SOUTHWEST WISCONSIN

CITY           SKY/WX    TMP DP  RH WIND       PRES   REMARKS
LA CROSSE      MOSUNNY   80  61  52 SW15G29   29.75R HX  81
SPARTA         MOSUNNY   77  59  54 SW7G17    29.78R
VIROQUA        PTSUNNY   75  63  65 SW17      29.80S
BOSCOBEL       PTSUNNY   79  62  56 SW15G23   29.80S HX  80
PRAIRIE DU CHI MOSUNNY   77  59  54 SW10G24   29.80S
PLATTEVILLE    MOSUNNY   76  65  67 SW17G25   29.85R
$$

WIZ056-057-062-063-064-067-068-252100-
SOUTH CENTRAL WISCONSIN

CITY           SKY/WX    TMP DP  RH WIND       PRES   REMARKS
REEDSBURG      PTSUNNY   75  64  68 SW14G25   29.80R
BARABOO/DELLS  CLOUDY    74  61  63 SW17G24   29.81R
LONE ROCK      MOSUNNY   76  63  64 SW12      29.81R
MINERAL POINT  PTSUNNY   75  63  64 SW15G22   29.84S
MADISON        PTSUNNY   76  61  59 SW10G20   29.82S
MIDDLETON      CLOUDY    75  60  59 SW16G26   29.84R
WATERTOWN      PTSUNNY   76  62  62 SW17G30   29.82S
MONROE         PTSUNNY   75  63  64 SW20G25   29.85S
JANESVILLE     PTSUNNY   77  63  61 SW18G24   29.85S
$$

WIZ051-052-058>065-066-070>072-252100-
SOUTHEAST WISCONSIN

CITY           SKY/WX    TMP DP  RH WIND       PRES   REMARKS
MILWAUKEE      MOSUNNY   75  61  61 SW21G28   29.85R
WAUKESHA       PTSUNNY   73  61  64 SW16G23   29.85R
MILWAUKEE/TIMM PTSUNNY   75  59  57 W14G25    29.83S
RACINE         PTSUNNY   77  60  55 W15G26    29.86S
BURLINGTON     MOSUNNY   74  59  59 W14       29.86S
KENOSHA        PTSUNNY   76  62  62 SW17G25   29.86R
FOND DU LAC    MOSUNNY   75  61  61 W20G28    29.79F
SHEBOYGAN      PTSUNNY   76  63  64 SW18G30   29.79S
WEST BEND      PTSUNNY   75  61  60 SW20      29.82R
JUNEAU         PTSUNNY   73  61  64 SW21G29   29.83S
$$

LSZ147-162-252100-
LAKE SUPERIOR

STATION/POSITION TIME  TEMP    WIND        PRES    WAVE
                       AIR SEA DIR/SP/G            HT/PER
                 (UTC) (F)     (DEG/KT/KT) (MB)    (FT/S)
W MID LAKE BUOY  1950   39 36   30/ 14/ 16 1049.0F   4/ 5
DEVILS ISLAND    2000   42      90/ 10/ 13 1064.0R
PORT WING        1940   44      30/ 10/ 14 1058.0R
SAXON HARBOR     1900   48        CALM     1051.0R
$$

LMZ867-665-643>646-252100-
LAKE MICHIGAN

STATION/POSITION TIME  TEMP    WIND        PRES    WAVE
                       AIR SEA DIR/SP/G            HT/PER
                 (UTC) (F)     (DEG/KT/KT) (MB)    (FT/S)
CHAMBERS ISLAND  1900   68     190/  9/ 14 1058.0R
N MID LAKE BUOY  1950   44 37  200/ 21/ 23 1064.0R   4/ 5
NORTHPORT PIER   1900   62     150/  5/ 12 1058.0F
SISTER BAY       1918          230/ 15/ 19   N/A
KEWAUNEE LAKESHO 1900   50     170/ 12/ 16 1063.0F
SHEBOYGAN LAKESH 2000          240/ 22/ 27 1089.0R
PORT WASHINGTON  1900          250/ 15/ 23   N/A
ATWATER BUOY     1900   69 46  230/ 17/ 21   N/A
MILWAUKEE LAKESH 1900   73     250/ 18/ 27   N/A
S MID LAKE BUOY  1950   47 38  190/ 14/ 16   N/A     2/ 4
KENOSHA   LAKESH 2000   75     250/ 13/ 21   N/A
$$

TC  - TEMPERATURE IN CELSIUS
VSB - VISIBILITY IN STATUTE MILES
WCI - WIND CHILL INDEX
HX  - HEAT INDEX




USA.gov is the U.S. government's official web portal to all federal, state and local government web resources and services.